Location: Pegasus Observatory
(35.6569°N, 82.5850°W)
Time: 01:21:43
(UTC-05:00)

Hubble Space Telescope - Visible Passes

Search period start: 29 January 2020 00:00
Search period end: 08 February 2020 00:00
Orbit: 536 x 540 km, 28.5° (Epoch: 28 January)

Date Brightness Start Highest point End Pass type
(mag) Time Alt. Az. Time Alt. Az. Time Alt. Az.
30 Jan 3.5 05:20:06 10° S 05:20:57 11° SSE 05:21:49 10° SE visible
30 Jan 2.8 06:58:11 10° SW 07:01:31 24° S 07:04:51 10° ESE visible
31 Jan 3.4 05:10:26 13° SSE 05:10:26 13° SSE 05:12:08 10° SE visible
31 Jan 2.6 06:47:22 10° SW 06:50:49 26° S 06:54:17 10° ESE visible
01 Feb 3.4 05:00:39 14° SE 05:00:39 14° SE 05:01:58 10° SE visible
01 Feb 2.4 06:36:36 10° SW 06:40:08 28° S 06:43:40 10° ESE visible
02 Feb 3.6 04:50:47 13° SE 04:50:47 13° SE 04:51:37 10° ESE visible
02 Feb 2.3 06:26:07 11° SW 06:29:27 29° S 06:33:02 10° ESE visible
03 Feb 3.9 04:40:51 11° ESE 04:40:51 11° ESE 04:41:09 10° ESE visible
03 Feb 2.2 06:16:11 16° SW 06:18:46 30° S 06:22:23 10° ESE visible
04 Feb 2.1 06:06:12 20° SW 06:08:04 30° S 06:11:41 10° ESE visible
05 Feb 2.1 05:56:12 25° SW 05:57:24 29° S 06:00:59 10° ESE visible
06 Feb 2.1 05:46:11 27° SSW 05:46:43 28° S 05:50:14 10° SE visible
07 Feb 2.2 05:36:11 26° S 05:36:11 26° S 05:39:27 10° SE visible
